Skip Page Navigation
NASA JPL Caltech
NASA Logo - Jet Propulsion Laboratory + View the NASA Portal
+ Near-Earth Object (NEO) Program
Search JPL
JPL Home Earth Solar System Stars & Galaxies Technology
JPL Solar System Dynamics
BODIES ORBITS EPHEMERIDES TOOLS PHYSICAL DATA DISCOVERY FAQ SITE MAP
JPL Small-Body Database Browser
Search: [ help ]  
31000 Rockchic (1995 VV)
Classification: Main-belt Asteroid          SPK-ID: 2031000
Ephemeris | Orbit Diagram | Orbital Elements | Physical Parameters | Discovery Circumstances ]

[ show orbit diagram ]
Orbital Elements at Epoch 2457600.5 (2016-Jul-31.0) TDB
Reference: JPL 16 (heliocentric ecliptic J2000)
 Element Value Uncertainty (1-sigma)   Units 
e .05306597297628793 8.0475e-08  
a 3.003730621749866 3.0859e-08 au
q 2.84433473374804 2.584e-07 au
i 11.29082740951861 6.8382e-06 deg
node 38.66267860497489 2.7843e-05 deg
peri 317.7549381495481 5.6896e-05 deg
M 43.89548287008173 4.9712e-05 deg
tp 2457368.649930749899
(2015-Dec-12.14993075)
0.00026179 JED
period 1901.471847959217
5.21
2.9303e-05
8.023e-08
d
yr
n .1893270207425765 2.9176e-09 deg/d
Q 3.163126509751693 3.2497e-08 au
  Orbit Determination Parameters
   # obs. used (total)      901  
   data-arc span      7317 days (20.03 yr)  
   first obs. used      1995-11-11  
   last obs. used      2015-11-23  
   planetary ephem.      DE431  
   SB-pert. ephem.      SB431-BIG16  
   condition code      0  
   fit RMS      .54174  
   data source      ORB  
   producer      Otto Matic  
   solution date      2016-Jan-04 14:15:30  

Additional Information
 Earth MOID = 1.85227 au 
 Jupiter MOID = 2.09477 au 
 T_jup = 3.220 
[ show covariance matrix ]

Ephemeris | Orbit Diagram | Orbital Elements | Physical Parameters | Discovery Circumstances ]

Physical Parameter Table
Parameter Symbol Value Units Sigma Reference Notes
absolute magnitude H 13.4 mag n/a MPO351043  

31000 Rockchic           Discovered 1995 Nov. 11 by AMOS at Haleakala.
Gail ("Rockchic") Swanson (b. 1960) is an award-winning Maui-based singer-songwriter. Classically trained and rock inspired, her style is acoustic pop/rock. Her recordings feature her voice, guitar and flute. In addition to her own gigs, she performs at benefits and routinely opens for world-renowned artists.
NOTE: some special characters may not display properly (any characters within {} are an attempt to place the proper accent above a character)
Reference: 20070926/MPCPages.arcLast Updated: 2007-09-30

Alternate Designations
 1995 VV = 1998 HC52 
Ephemeris | Orbit Diagram | Orbital Elements | Physical Parameters | Discovery Circumstances ]
ABOUT SSD CREDITS/AWARDS PRIVACY/COPYRIGHT GLOSSARY LINKS
FirstGov 2016-May-02 19:25 UT
(server date/time)  
NASA Home Page
Site Manager:   Ryan S. Park
Webmaster  Alan B. Chamberlin